Powrót do katalogu

STARLINK-31438

AktywnyŁącznośćVLEO
NORAD 59234·PAYLOAD·🇺🇸 United States

Wystrzelony Mar 16, 2024 z Cape Canaveral Space Force Station

Loading…

Następne Przeloty (najbliższe 24 godziny)

TLE

ŚwieżeSource: CelesTrak SupGP

Epoka: Sep 15, 2026, 02:22 UTC

1 59234C 24049D   26258.09909722  .00031304  00000+0  11339-2 0  2580
2 59234  43.0002 142.8476 0001463 275.6074 349.6827 15.27559616    18

Śledź STARLINK-31438 w czasie rzeczywistym z AllMySat

Download on the App Store